[Date Prev][Date Next][Thread Prev][Thread Next] - [Date Index][Thread Index][Author Index]

2 Line ISS Keps 10-7



ISS
1 25544U 98067A   05279.98356481  .00017882  00000-0  12821-3 0  4995
2 25544 051.6449 048.2633 0001757 091.5052 048.4012 15.73768237393271
----
Via the sarex mailing list at AMSAT.ORG courtesy of AMSAT-NA.
To unsubscribe, send "unsubscribe sarex" to Majordomo@amsat.org



AMSAT Top AMSAT Home